Location: Middelsbur
(53.6609°N, 7.5020°E)
Time: 13:07:26
(UTC+00:00)

Cosmos 2366 rocket - Pass Details

Date: 06 July 2020
Orbit: 954 x 998 km, 82.9° (Epoch: 06 August)

Event Time Altitude Azimuth Distance (km) Brightness Sun altitude
Exits shadow 23:21:53 18° 191° (SSW) 2,241 5.3 -13.7°
Maximum altitude 23:26:50 86° 281° (W) 1,008 4.1 -13.8°
Drops below altitude 10° 23:33:14 10° 10° (N) 2,770 7.8 -13.8°
Sets 23:35:45 0° 11° (NNE) 3,718 8.8 -13.8°
